FW1629 Weather Reports


Display with metric or nautical units.
time (UTC)temp
F
wind
direction
speed
MPH
gust
MPH
rain 1hr
in
rain 24hr
in
rain mn
in
humidity
%
barometer
mb
20260505170003 59 202 37.0 46.0 0.00 0.00 0.00 79 997.0
20260505164604 58 160 27.0 44.0 0.00 0.00 0.00 75 997.5
20260505163101 58 175 29.0 37.0 0.00 0.00 0.00 69 997.9
20260505161554 58 157 35.0 45.0 0.00 0.00 0.00 68 998.0
20260505153105 52 160 33.0 45.0 0.00 0.00 0.00 76 998.4
20260505151554 53 161 27.0 38.0 0.00 0.00 0.00 73 998.4
20260505124530 53 175 0.0 0.0 0.00 0.00 0.00 65 1000.1
20260505123025 54 39 0.0 0.0 0.00 0.00 0.00 68 1000.3
20260505121521 54 39 0.0 0.0 0.00 0.00 0.00 66 1000.6
20260505120018 53 27 0.0 0.0 0.00 0.00 0.00 69 1000.7
20260505114527 50 36 0.0 0.0 0.00 0.00 0.00 71 1000.8
20260505113008 47 360 0.0 0.0 0.00 0.00 0.00 78 1001.2
20260505111505 44 6 0.0 17.0 0.00 0.00 0.00 81 1001.2
20260505101502 40 346 5.0 13.0 0.00 0.00 0.00 86 1001.7
20260505100100 39 17 0.0 0.0 0.00 0.00 0.00 86 1001.7
20260505094607 39 356 0.0 0.0 0.00 0.00 0.00 86 1001.6
20260505093057 39 10 8.0 19.0 0.00 0.00 0.00 85 1001.7
20260505091559 40 12 4.0 15.0 0.00 0.00 0.00 85 1001.8
20260505090058 40 3 0.0 0.0 0.00 0.00 0.00 85 1001.9
20260505084551 40 6 0.0 13.0 0.00 0.00 0.00 85 1002.0
20260505083051 40 3 0.0 1.0 0.00 0.00 0.00 85 1002.1
20260505081557 40 11 0.0 14.0 0.00 0.00 0.00 85 1002.2
20260505080048 41 339 0.0 1.0 0.00 0.00 0.00 84 1002.2
20260505074603 41 329 1.0 18.0 0.00 0.00 0.00 83 1002.2
20260505073040 41 332 1.0 15.0 0.00 0.00 0.00 83 1002.2
20260505071537 41 347 0.0 10.0 0.00 0.00 0.00 83 1002.4
20260505070035 42 358 0.0 12.0 0.00 0.00 0.00 83 1002.6
20260505064535 42 353 0.0 9.0 0.00 0.00 0.00 82 1002.7
20260505063038 42 343 0.0 3.0 0.00 0.00 0.00 81 1002.9
20260505061533 43 7 0.0 12.0 0.00 0.00 0.00 80 1003.1
20260505060027 43 5 0.0 0.0 0.00 0.00 0.00 81 1003.1
20260505054528 43 349 0.0 1.0 0.00 0.00 0.00 80 1003.4
20260505053023 43 355 0.0 11.0 0.00 0.00 0.00 81 1003.7
20260505051522 43 336 0.0 0.0 0.00 0.00 0.00 80 1003.8
20260505041514 44 330 0.0 0.0 0.00 0.00 0.00 79 1004.0
20260505040012 45 3 0.0 0.0 0.00 0.00 0.00 77 1003.9
20260505034514 45 4 0.0 0.0 0.00 0.00 0.00 77 1003.8
20260505033023 45 24 0.0 0.0 0.00 0.00 0.00 77 1003.9
20260505031510 46 24 0.0 0.0 0.00 0.00 0.00 77 1003.9
20260505030010 47 60 0.0 0.0 0.00 0.00 0.00 75 1004.1
20260505024525 48 156 0.0 16.0 0.00 0.00 0.00 78 1004.0
20260505023008 47 154 3.0 17.0 0.00 0.00 0.00 79 1004.1
20260505021525 46 20 0.0 0.0 0.00 0.00 0.00 76 1004.1
20260505020007 47 316 0.0 0.0 0.00 0.00 0.00 76 1004.1
20260505014506 48 214 0.0 2.0 0.00 0.00 0.00 74 1004.1
20260505013006 49 98 0.0 0.0 0.00 0.00 0.00 72 1004.0
20260505011507 49 178 0.0 17.0 0.00 0.00 0.00 70 1004.1
20260505010006 49 163 0.0 0.0 0.00 0.00 0.00 73 1004.0
20260505004513 49 150 0.0 0.0 0.00 0.00 0.00 72 1003.8
20260505003004 49 270 0.0 0.0 0.00 0.00 0.00 74 1003.6
20260505001504 49 150 0.0 12.0 0.00 0.00 0.00 74 1003.1
20260505000004 51 102 0.0 6.0 0.00 0.00 0.00 70 1002.8
20260504234503 51 273 0.0 0.0 0.00 0.00 0.00 68 1002.4
20260504233002 51 233 8.0 22.0 0.00 0.00 0.00 69 1002.2
20260504231502 50 226 9.0 27.0 0.00 0.00 0.00 72 1001.9
20260504230002 50 246 15.0 40.0 0.00 0.00 0.00 76 1001.7
20260504224558 49 218 29.0 40.0 0.00 0.00 0.00 77 1001.5
20260504223102 49 215 27.0 38.0 0.00 0.00 0.00 77 1001.2
20260504221605 49 201 26.0 45.0 0.00 0.00 0.00 76 1001.2
20260504220122 51 223 25.0 39.0 0.00 0.00 0.00 74 1001.1
20260504214553 51 232 20.0 35.0 0.00 0.00 0.00 72 1000.9
20260504213103 50 211 34.0 51.0 0.00 0.00 0.00 75 1000.7
20260504211548 49 229 33.0 56.0 0.00 0.00 0.00 80 1000.8
20260504210048 49 227 37.0 57.0 0.00 0.00 0.00 80 1000.5
20260504204600 49 216 41.0 60.0 0.00 0.00 0.00 81 1000.4
20260504203046 49 210 50.0 62.0 0.00 0.00 0.00 81 1000.5
20260504201544 49 201 51.0 62.0 0.00 0.00 0.00 80 1000.5
20260504200046 49 208 47.0 60.0 0.00 0.00 0.00 82 1000.5
20260504194544 49 214 48.0 62.0 0.00 0.00 0.00 84 1000.5
20260504193039 48 225 59.0 70.0 0.00 0.00 0.00 86 1000.7
20260504191541 48 212 54.0 65.0 0.00 0.00 0.00 85 1000.8
20260504190039 49 206 53.0 66.0 0.00 0.00 0.00 82 1000.9
20260504184537 49 208 52.0 66.0 0.00 0.00 0.00 81 1000.8
20260504183035 47 222 47.0 61.0 0.00 0.00 0.00 82 1001.2
20260504181532 48 204 56.0 63.0 0.00 0.00 0.00 81 1001.2
20260504180031 48 219 53.0 63.0 0.00 0.00 0.00 83 1001.3
20260504174530 48 217 50.0 63.0 0.00 0.00 0.00 83 1001.4
20260504173029 48 200 48.0 57.0 0.00 0.00 0.00 80 1001.4
20260504171527 48 200 44.0 53.0 0.00 0.00 0.00 80 1001.6